Regional Weather Roundup
Issued by NWS

Home | Current Version | Previous Version | Graphics & Text | Print | Product List | Glossary On
Versions: 1 2 3 4 5 6 7 8 9 10 11 12 13 14 15 16 17 18 19 20 21 22 23 24 25 26 27 28 29 30 31 32 33 34 35 36 37 38 39 40 41 42 43 44 45 46 47 48 49 50
000
ASUS43 KDMX 202301
RWRIA

WEATHER ROUNDUP FOR IOWA
NATIONAL WEATHER SERVICE DES MOINES IA
600 PM CDT FRI OCT 20 2017

NOTE: "FAIR" INDICATES FEW OR NO CLOUDS BELOW 12,000 FEET WITH NO
SIGNIFICANT WEATHER AND/OR OBSTRUCTIONS TO VISIBILITY.

* - THESE STATIONS ARE NOT NWS STATIONS...THUS NOT UNDER NWS
QUALITY CONTROL.  THEY ALSO DO NOT REPORT WEATHER SUCH
AS PRECIPITATION OR FOG.

IAZ001>003-012>014-020>022-031>034-043>046-210000-
   NORTHWEST IOWA

CITY           SKY/WX    TMP DP  RH WIND       PRES   REMARKS
CHEROKEE *     PTCLDY    71  56  58 S17G25    29.69S
DENISON *      PTCLDY    72  57  60 S18G30    29.75S
LE MARS *      MOCLDY    73  57  56 S24G33    29.63F
ORANGE CITY *  PTCLDY    73  61  64 S20G32    29.65F
SHELDON *      PTCLDY    72  55  56 S17G31    29.64F
SIOUX CITY     CLOUDY    74  59  59 S20G29    29.64F
SPENCER        CLEAR     72  54  53 S20G32    29.70F
STORM LAKE *   CLEAR     72  55  56 S23G38    29.71F
$$

IAZ055>058-069>071-079>083-090>094-210000-
   SOUTHWEST IOWA

CITY           SKY/WX    TMP DP  RH WIND       PRES   REMARKS
ATLANTIC *     MOCLDY    72  57  60 S17G23    29.78R
AUDUBON *      CLEAR     70  57  64 S15G25    29.78F
CLARINDA *     PTCLDY    72  59  64 S15G26    29.82S
COUNCIL BLFS * CLOUDY    72  61  68 S24       29.73F
CRESTON *      CLEAR     70  55  60 S18G26    29.84F
HARLAN  *      PTCLDY    72  57  60 S17G25    29.78F
LAMONI         LGT RAIN  68  55  63 S18G31    29.87F
RED OAK *      MOCLDY    73  59  60 S18G31    29.78S
SHENANDOAH *   MOCLDY    73  59  60 S18G25    29.78S
$$

IAZ047>049-059>061-072>074-084-210000-
   CENTRAL IOWA

CITY           SKY/WX    TMP DP  RH WIND       PRES   REMARKS
AMES           CLOUDY    69  52  54 S22G30    29.83F
ANKENY *       CLOUDY    70  50  49 S14G25    29.85S
BOONE *        CLOUDY    70  52  52 S20G26    29.81S
CHARITON *     MOCLDY    68  52  56 S15G23    29.87F
DES MOINES     CLOUDY    70  51  51 S23G30    29.85R
GRINNELL*      CLOUDY    68  51  55 S10       29.90S
KNOXVILLE *    CLOUDY    70  50  49 S14       29.87S
MARSHALLTOWN   CLOUDY    69  49  48 S20       29.85F
NEWTON *       MOCLDY    68  50  52 S15       29.87S
PELLA *        CLOUDY    69  50  50 S12       29.89S
PERRY *          N/A     72  51  48 S15G26    29.81R
$$

IAZ004>006-015-016-023>025-035-036-210000-
   NORTH CENTRAL IOWA

CITY           SKY/WX    TMP DP  RH WIND       PRES   REMARKS
ALGONA *       CLEAR     72  50  46 S20G33    29.75F
CLARION *      PTCLDY    72  50  46 S22G30    29.79S
ESTHERVILLE    PTCLDY    70  53  54 S23G30    29.71F
FORT DODGE *   CLOUDY    72  52  49 S15G25    29.78F
MASON CITY     PTCLDY    70  47  43 S23G35    29.81F
FOREST CITY *    N/A     70  50  49 S16G22    29.79F
WEBSTER CITY * PTCLDY    72  50  46 S22G30    29.78S
IOWA FALLS *     N/A     69  51  51 S15       29.85S
$$

IAZ007>011-017>019-026>030-037>042-050>054-066-210000-
   NORTHEAST IOWA

CITY           SKY/WX    TMP DP  RH WIND       PRES   REMARKS
CEDAR RAPIDS   CLOUDY    70  44  39 S14G22    29.91F
CHARLES CITY * CLOUDY    68  46  45 S14       29.85S
CLINTON *      CLOUDY    69  47  45 S10       29.98F
DECORAH *      CLEAR     68  45  42 S12G17    29.87F
DUBUQUE        CLEAR     69  46  43 S12       29.95F
MONTICELLO *   CLEAR     72  43  35 SE10G17   29.92F
OELWEIN *      CLOUDY    68  46  45 S13       29.88F
WATERLOO       CLOUDY    69  46  43 S14G23    29.85F
$$

IAZ064-065-067-068-078-210000-
   EAST CENTRAL IOWA

CITY           SKY/WX    TMP DP  RH WIND       PRES   REMARKS
DAVENPORT      PTCLDY    70  45  40 S8        29.99F
IOWA CITY      CLOUDY    71  45  39 S14G22    29.94F
MUSCATINE *    PTCLDY    72  48  43 SE9       29.95F
QUAD CITIES    PTCLDY    70  46  42 S7        29.97F
$$

IAZ062-063-075>077-085>089-095>099-210000-
   SOUTHEAST IOWA

CITY           SKY/WX    TMP DP  RH WIND       PRES   REMARKS
BURLINGTON     CLOUDY    67  49  52 S7        29.96F
FAIRFIELD *    CLOUDY    70  46  43 S13G20    29.94R
FORT MADISON * PTCLDY    70  48  46 S6        29.97F
KEOKUK *       CLOUDY    70  48  46 SE8       29.96F
OSKALOOSA *      N/A     68  50  52 S18       29.91R
OTTUMWA        CLOUDY    69  50  50 S16       29.91S
WASHINGTON *   MOCLDY    70  46  43 S15G23    29.95S
$$

ABBREVIATIONS USED IN REMARKS
   TC - TEMPERATURES IN CELSIUS
  WCI - WIND CHILL INDEX
   HX - HEAT INDEX
  VSB - VISIBILITY
$$





USA.gov is the U.S. government's official web portal to all federal, state and local government web resources and services.